This demonstration page uses our WeatherBlox Daily Observations layout. Learn more.

Left ArrowRight Arrow

Hourly Observations for August 3, 2018

Temp ( °F °C ) Dew Point ( °F °C ) Humidity (%) Winds ( mph kmh ) Pressure ( in mb ) Visibility ( mi km ) Precip ( " mm )
12:15 am 00:15 Mostly Cloudy 72 22 72 22 100 100 SSW 5 7 30.12 1020 10 16.0934 0 0
12:35 am 00:35 Partly Cloudy 72 22 72 22 100 100 S 6 9 30.12 1020 10 16.0934 0 0
12:55 am 00:55 Mostly Cloudy 72 22 72 22 100 100 S 6 9 30.15 1021 10 16.0934 0 0
1:15 am 01:15 Cloudy 72 22 72 22 100 100 SSW 7 11 30.15 1021 10 16.0934 0 0
1:35 am 01:35 Mostly Cloudy 72 22 72 22 100 100 SSW 5 7 30.12 1020 10 16.0934 0 0
1:55 am 01:55 Clear 70 21 70 21 100 100 S 3 6 30.12 1020 10 16.0934 0 0
2:15 am 02:15 Clear 70 21 70 21 100 100 S 6 9 30.12 1020 10 16.0934 0 0
2:35 am 02:35 Clear 70 21 70 21 100 100 S 6 9 30.12 1020 10 16.0934 0 0
2:55 am 02:55 Partly Cloudy 70 21 70 21 100 100 S 7 11 30.12 1020 10 16.0934 0 0
3:15 am 03:15 Mostly Cloudy 70 21 70 21 100 100 S 9 15 30.12 1020 10 16.0934 0 0
3:35 am 03:35 Cloudy 70 21 70 21 100 100 S 7 11 30.12 1020 10 16.0934 0 0
3:55 am 03:55 Mostly Cloudy 70 21 70 21 100 100 S 6 9 30.12 1020 10 16.0934 0 0
4:15 am 04:15 Partly Cloudy 70 21 70 21 100 100 S 6 9 30.12 1020 10 16.0934 0 0
4:35 am 04:35 Partly Cloudy 70 21 70 21 100 100 S 6 9 30.12 1020 10 16.0934 0 0
4:55 am 04:55 Cloudy 70 21 70 21 100 100 S 6 9 30.12 1020 10 16.0934 0 0
5:15 am 05:15 Cloudy 70 21 70 21 100 100 S 7 11 30.12 1020 10 16.0934 0 0
5:35 am 05:35 Mostly Cloudy 70 21 70 21 100 100 S 7 11 30.12 1020 10 16.0934 0 0
5:55 am 05:55 Mostly Cloudy 70 21 70 21 100 100 S 6 9 30.12 1020 10 16.0934 0 0
6:15 am 06:15 Cloudy 70 21 70 21 100 100 S 7 11 30.15 1021 10 16.0934 0 0
6:35 am 06:35 Cloudy 70 21 70 21 100 100 S 8 13 30.15 1021 10 16.0934 0 0
6:55 am 06:55 Cloudy 70 21 70 21 100 100 S 8 13 30.15 1021 10 16.0934 0 0
7:15 am 07:15 Cloudy with Light Rain 70 21 70 21 100 100 S 8 13 30.15 1021 10 16.0934 0 0
7:35 am 07:35 Cloudy 70 21 70 21 100 100 S 7 11 30.15 1021 10 16.0934 0 0
7:55 am 07:55 Cloudy with Light Rain 70 21 70 21 100 100 S 6 9 30.15 1021 10 16.0934 0 0
8:15 am 08:15 Cloudy 70 21 70 21 100 100 S 6 9 30.15 1021 10 16.0934 0 0
8:35 am 08:35 Mostly Cloudy 70 21 70 21 100 100 S 8 13 30.15 1021 10 16.0934 0 0
8:55 am 08:55 Cloudy with Light Rain 72 22 70 21 94 94 S 7 11 30.15 1021 10 16.0934 0 0
9:15 am 09:15 Cloudy 72 22 70 21 94 94 S 8 13 30.15 1021 10 16.0934 0 0
9:35 am 09:35 Cloudy with Light Rain 72 22 72 22 100 100 SSW 8 13 30.15 1021 10 16.0934 0 0
9:55 am 09:55 Cloudy with Light Rain 73 23 72 22 94 94 SSW 8 13 30.15 1021 10 16.0934 0 0
10:15 am 10:15 Cloudy 73 23 72 22 94 94 SSW 8 13 30.15 1021 10 16.0934 0 0
10:35 am 10:35 Cloudy with Light Rain 72 22 72 22 100 100 SW 7 11 30.15 1021 10 16.0934 0 0
10:55 am 10:55 Cloudy 73 23 72 22 94 94 SSW 8 13 30.15 1021 10 16.0934 0 0
11:15 am 11:15 Cloudy 73 23 72 22 94 94 SSW 9 15 30.15 1021 10 16.0934 0 0
11:35 am 11:35 Cloudy 75 24 72 22 89 89 SSW 12 19 30.15 1021 10 16.0934 0 0
11:55 am 11:55 Cloudy 77 25 72 22 83 83 SSW 9 15 30.15 1021 10 16.0934 0 0
12:15 pm 12:15 Cloudy 79 26 72 22 79 79 S 9 15 30.15 1021 10 16.0934 0 0
12:35 pm 12:35 Cloudy 77 25 72 22 83 83 SSW 9 15 30.15 1021 10 16.0934 0 0
12:55 pm 12:55 Cloudy 79 26 72 22 79 79 SW 9 15 30.15 1021 10 16.0934 0 0
1:15 pm 13:15 Mostly Cloudy 79 26 73 23 84 84 SW 8 13 30.15 1021 10 16.0934 0 0
1:35 pm 13:35 Mostly Cloudy 79 26 72 22 79 79 SW 9 15 30.15 1021 10 16.0934 0 0
1:55 pm 13:55 Cloudy 79 26 72 22 79 79 SW 9 15 30.15 1021 10 16.0934 0 0
2:15 pm 14:15 Cloudy with Light Rain 79 26 73 23 84 84 S 7 11 30.15 1021 10 16.0934 0 0
2:35 pm 14:35 Cloudy 79 26 73 23 84 84 S 9 15 30.12 1020 10 16.0934 0 0
2:55 pm 14:55 Cloudy 81 27 73 23 79 79 S 8 13 30.12 1020 10 16.0934 0 0
3:15 pm 15:15 Cloudy 81 27 73 23 79 79 SSW 13 20 30.12 1020 10 16.0934 0 0
3:35 pm 15:35 Mostly Cloudy 82 28 72 22 70 70 SSW 16 26 30.12 1020 10 16.0934 0 0
3:55 pm 15:55 Partly Cloudy 82 28 73 23 74 74 S 15 24 30.12 1020 10 16.0934 0 0
4:15 pm 16:15 Partly Cloudy 82 28 72 22 70 70 SSW 12 19 30.12 1020 10 16.0934 0 0
4:35 pm 16:35 Mostly Cloudy 81 27 73 23 79 79 S 13 20 30.12 1020 10 16.0934 0 0
4:55 pm 16:55 Cloudy 81 27 73 23 79 79 SSW 13 20 30.12 1020 10 16.0934 0 0
5:15 pm 17:15 Cloudy 81 27 73 23 79 79 S 7 11 30.12 1020 10 16.0934 0 0
5:35 pm 17:35 Cloudy 81 27 73 23 79 79 S 7 11 30.09 1019 10 16.0934 0 0
5:55 pm 17:55 Cloudy 81 27 73 23 79 79 S 7 11 30.09 1019 10 16.0934 0 0
6:15 pm 18:15 Cloudy with Light Rain 77 25 75 24 94 94 S 10 17 30.09 1019 7 11.26538 0 0
6:35 pm 18:35 Cloudy 77 25 75 24 94 94 WSW 5 7 30.09 1019 10 16.0934 0 0
6:55 pm 18:55 Cloudy 77 25 73 23 89 89 WSW 3 6 30.09 1019 10 16.0934 0 0
7:15 pm 19:15 Cloudy with Light Rain 77 25 73 23 89 89 SSW 3 6 30.12 1020 5 8.0467 0 0
7:35 pm 19:35 Cloudy with Heavy Rain 73 23 73 23 100 100 W 3 6 30.12 1020 2 3.21868 0 0
7:55 pm 19:55 Cloudy with Light Rain 72 22 72 22 100 100 WSW 3 6 30.12 1020 5 8.0467 0 0
8:15 pm 20:15 Cloudy with Heavy Rain 72 22 72 22 100 100 W 3 6 30.12 1020 2.5 4.02335 0 0
8:35 pm 20:35 Cloudy with Rain 72 22 72 22 100 100 SW 7 11 30.12 1020 7 11.26538 0 0
8:55 pm 20:55 Cloudy with Rain 72 22 72 22 100 100 SSW 6 9 30.12 1020 7 11.26538 0 0
9:15 pm 21:15 Cloudy with Rain 72 22 72 22 100 100 S 7 11 30.12 1020 7 11.26538 0 0
9:35 pm 21:35 Cloudy with Rain 70 21 70 21 100 100 SSW 8 13 30.12 1020 10 16.0934 0 0
9:55 pm 21:55 Cloudy with Rain 70 21 70 21 100 100 W 6 9 30.12 1020 3 4.82802 0 0
10:15 pm 22:15 Cloudy with Rain 70 21 70 21 100 100 Calm 30.12 1020 7 11.26538 0 0
10:35 pm 22:35 Cloudy with Rain 70 21 70 21 100 100 Calm 30.12 1020 5 8.0467 0 0
10:55 pm 22:55 Cloudy with Rain 70 21 70 21 100 100 Calm 30.12 1020 4 6.43736 0 0
11:15 pm 23:15 Cloudy with Light Rain 68 20 68 20 100 100 Calm 30.12 1020 10 16.0934 0 0
11:35 pm 23:35 Cloudy with Rain 68 20 68 20 100 100 Calm 30.12 1020 10 16.0934 0 0
11:55 pm 23:55 Cloudy with Light Rain 68 20 68 20 100 100 Calm 30.12 1020 10 16.0934 0 0

Powered by AerisWeather